Weather History for KPNC - January, 2013

Change the Weather History Date:

Saturday, January 12, 2013

  Actual Average Record
Temperature  
Mean Temperature 36 °F -  
Max Temperature 48 °F 44 °F 71 °F (2014)
Min Temperature 24 °F 24 °F -5 °F (1963)
Degree Days  
Heating Degree Days 29    
Moisture  
Dew Point 21 °F    
Average Humidity 65    
Maximum Humidity 84    
Minimum Humidity 42    
Precipitation  
Precipitation 0.03 in - - ()
Sea Level Pressure  
Sea Level Pressure 30.00 in    
Wind  
Wind Speed 16 mph (North)    
Max Wind Speed 23 mph    
Max Gust Speed 28 mph    
Visibility 8 miles    
Events Fog , Rain , Snow    
Averages and records for this station are not official NWS values.
T = Trace of Precipitation, MM = Missing Value Source: NWS Daily Summary

Daily Weather History Graph

Daily Weather History Graph

Search for Another Location

Airport or City:

Trip Planner

Search our weather history database for the weather conditions in past years. The results will help you decide how hot, cold, wet, or windy it might be!

Date:

Astronomy

Jan. 12, 2013 Rise Set
Actual Time 7:40 AM CST 5:33 PM CST
Civil Twilight 7:12 AM CST 6:01 PM CST
Nautical Twilight 6:40 AM CST 6:33 PM CST
Astronomical Twilight 6:09 AM CST 7:04 PM CST
Moon 8:03 AM CST (1/12) 7:00 PM CST (1/12)
Length of Visible Light 10h 49m
Length of Day
9h 52m
New Moon, 1% of the Moon is Illuminated
Jan 12
New Moon
Jan 18
First Quarter
Jan 26
Full
Feb 3
Last Quarter
Feb 10
New

Hourly Weather History & Observations

Time (CST) Temp. Windchill Dew Point Humidity Pressure Visibility Wind Dir Wind Speed Gust Speed Precip Events Conditions
12:53 AM 48.0 °F - 26.1 °F 42% 29.85 in 10.0 mi NNW 12.7 mph 20.7 mph N/A   Clear
1:53 AM 44.1 °F 38.1 °F 30.9 °F 60% 29.88 in 10.0 mi NNW 11.5 mph - N/A   Clear
2:53 AM 41.0 °F 33.9 °F 32.0 °F 70% 29.90 in 10.0 mi North 12.7 mph - N/A   Clear
3:53 AM 39.0 °F 29.9 °F 30.9 °F 73% 29.92 in 10.0 mi North 17.3 mph - N/A   Clear
4:53 AM 37.0 °F 28.9 °F 30.0 °F 76% 29.94 in 10.0 mi North 12.7 mph - N/A   Scattered Clouds
5:53 AM 35.1 °F 23.5 °F 21.9 °F 59% 29.95 in 10.0 mi North 21.9 mph 26.5 mph N/A   Mostly Cloudy
6:53 AM 34.0 °F 23.8 °F 21.0 °F 59% 29.99 in 10.0 mi North 16.1 mph - N/A   Mostly Cloudy
7:53 AM 33.1 °F 21.2 °F 19.9 °F 59% 30.03 in 10.0 mi North 20.7 mph - N/A   Overcast
8:53 AM 32.0 °F 20.1 °F 19.9 °F 61% 30.04 in 10.0 mi North 19.6 mph - N/A   Overcast
9:53 AM 30.9 °F 19.1 °F 21.0 °F 67% 30.01 in 10.0 mi NNE 18.4 mph 25.3 mph 0.00 in Rain Light Freezing Rain
10:42 AM 32.0 °F 21.6 °F 19.4 °F 60% 30.01 in 10.0 mi NNE 15.0 mph - 0.00 in   Overcast
10:53 AM 32.0 °F 19.8 °F 19.0 °F 59% 29.97 in 10.0 mi NNE 20.7 mph - 0.00 in Rain Light Freezing Rain
11:15 AM 32.0 °F 20.8 °F 19.4 °F 60% 30.01 in 10.0 mi NNE 17.3 mph - 0.00 in   Mostly Cloudy
11:53 AM 33.1 °F 22.6 °F 18.0 °F 54% 30.02 in 10.0 mi North 16.1 mph - 0.00 in   Overcast
12:53 PM 33.1 °F 20.6 °F 15.1 °F 48% 29.98 in 10.0 mi NNE 23.0 mph 27.6 mph N/A   Partly Cloudy
1:53 PM 30.9 °F 18.7 °F 17.1 °F 57% 29.98 in 7.0 mi North 19.6 mph 26.5 mph 0.00 in Snow Light Snow
2:53 PM 28.0 °F 16.5 °F 19.0 °F 69% 30.02 in 3.0 mi North 15.0 mph 25.3 mph 0.00 in Snow Light Snow
3:00 PM 28.4 °F 18.5 °F 19.4 °F 69% 30.03 in 1.8 mi North 11.5 mph - 0.01 in Snow Light Snow
3:10 PM 28.4 °F 19.1 °F 19.4 °F 69% 30.03 in 1.5 mi NNE 10.4 mph - 0.01 in Snow Light Snow
3:46 PM 26.6 °F 13.4 °F 21.2 °F 80% 30.01 in 0.2 mi North 18.4 mph 23.0 mph 0.02 in Snow Heavy Snow
3:53 PM 26.1 °F 11.6 °F 21.9 °F 84% 30.02 in 0.2 mi North 21.9 mph 26.5 mph 0.03 in Fog , Snow Snow
4:06 PM 26.6 °F 13.1 °F 21.2 °F 80% 29.99 in 1.0 mi NNE 19.6 mph 25.3 mph 0.00 in Snow Light Snow
4:27 PM 26.6 °F 13.4 °F 21.2 °F 80% 30.00 in 3.0 mi NNE 18.4 mph - 0.00 in Snow Light Snow
4:35 PM 26.6 °F 13.1 °F 21.2 °F 80% 29.98 in 7.0 mi NNE 19.6 mph - 0.00 in Snow Light Snow
4:53 PM 28.0 °F 17.0 °F 19.9 °F 72% 30.01 in 10.0 mi NNE 13.8 mph - 0.00 in   Overcast
5:53 PM 28.9 °F 16.9 °F 15.1 °F 56% 30.04 in 10.0 mi North 17.3 mph - N/A   Overcast
6:53 PM 28.0 °F 17.5 °F 19.0 °F 69% 30.06 in 10.0 mi North 12.7 mph 25.3 mph N/A   Overcast
7:53 PM 28.0 °F 15.7 °F 17.1 °F 63% 30.07 in 10.0 mi North 17.3 mph - N/A   Overcast
8:53 PM 27.0 °F 14.3 °F 16.0 °F 63% 30.08 in 10.0 mi North 17.3 mph - N/A   Overcast
9:53 PM 26.1 °F 13.1 °F 15.1 °F 63% 30.10 in 10.0 mi North 17.3 mph - N/A   Clear
10:53 PM 24.1 °F 13.7 °F 14.0 °F 65% 30.11 in 10.0 mi North 10.4 mph - N/A   Clear
11:53 PM 24.8 °F 12.4 °F 14.0 °F 64% 30.10 in 10.0 mi North 15.0 mph - N/A   Clear